Regional Weather Roundup
Issued by NWS

Home | Current Version | Previous Version | Graphics & Text | Print | Product List | Glossary On
Versions: 1 2 3 4 5 6 7 8 9 10 11 12 13 14 15 16 17 18 19 20 21 22 23 24 25 26 27 28 29 30 31 32 33 34 35 36 37 38 39 40 41 42 43 44 45 46 47 48 49 50
466
ASUS43 KIND 200459
RWRIN

WEATHER ROUNDUP FOR INDIANA
NATIONAL WEATHER SERVICE INDIANAPOLIS IN
100 AM EDT FRI APR 20 2018

NOTE: "FAIR" INDICATES FEW OR NO CLOUDS BELOW 12,000 FEET WITH NO
SIGNIFICANT WEATHER AND/OR OBSTRUCTIONS TO VISIBILITY.

* - STATION DOES NOT REPORT WEATHER SUCH AS PRECIPITATION OR FOG.

+ - STATION NOT QUALITY CONTROLLED BY THE NATIONAL WEATHER SERVICE.
    USE DATA WITH CAUTION...ESPECIALLY DEWPOINT AND RELATIVE
    HUMIDITY OBSERVATIONS.

INZ001>003-010>013-019-020-200600-
NORTHWEST INDIANA

CITY           SKY/WX    TMP DP  RH WIND       PRES   REMARKS
KNOX *+        FAIR      32  21  64 CALM      30.42R
MONTICELLO +   FAIR      29  21  71 NW5       30.42R WCI  24

$$

LMZ046-743>745-200600-
SOUTHERN LAKE MICHIGAN

STATION/POSITION TIME  TEMP    WIND        PRES    WAVE
                       AIR SEA DIR/SP/G            HT
                 (UTC) (F)     (DEG/KT/KT) (MB)    (FT)
BURNS HARBOR     0440   41     300/  6/  8 1031.2R
MICHIGAN CITY    0430   39     300/  9/ 10   N/A

$$

INZ004-005-014>016-021>024-200600-
NORTH CENTRAL INDIANA

CITY           SKY/WX    TMP DP  RH WIND       PRES   REMARKS
GOSHEN         FAIR      35  21  56 N6        30.40R WCI  30
PERU/GRISSOM   FAIR      35  19  51 NW6       30.39R WCI  30
ROCHESTER +    FAIR      36  23  60 NW3       30.41R
SOUTH BEND     FAIR      28  22  78 NW6       30.42R WCI  22
WARSAW +       FAIR      32  23  69 N5        30.40R WCI  27

$$

INZ006>009-017-018-025>027-200600-
NORTHEAST INDIANA

CITY           SKY/WX    TMP DP  RH WIND       PRES   REMARKS
ANGOLA *+      FAIR      36  23  60 NW6       30.38R WCI  31
FORT WAYNE     FAIR      35  24  64 N9        30.39R WCI  28
KENDALLVILLE + FAIR      33  20  57 N7        30.38R WCI  27

$$

INZ028-029-035-036-043>045-051>053-200600-
WEST CENTRAL INDIANA

CITY           SKY/WX    TMP DP  RH WIND       PRES   REMARKS
GREENCASTLE +  FAIR      36  14  41 N5        30.41S WCI  32
LAFAYETTE      FAIR      31  20  63 W3        30.42R
TERRE HAUTE    FAIR      40  17  39 NE6       30.42R WCI  36

$$

INZ030>032-037>040-046>048-054>057-064-065-200600-
CENTRAL INDIANA

CITY           SKY/WX    TMP DP  RH WIND       PRES   REMARKS
INDIANAPOLIS   FAIR      38  16  40 N9        30.39S WCI  31
-EAGLE CREEK   FAIR      38  17  42 N7        30.38F WCI  33
KOKOMO +       FAIR      34  21  59 NW6       30.40R WCI  29
SHELBYVILLE    FAIR      37  22  54 N9        30.38R WCI  30
ZIONSVILLE +   FAIR      32  21  64 N6        30.40S WCI  27

$$

INZ033-034-041-042-049-050-058-059-200600-
EAST CENTRAL INDIANA

CITY           SKY/WX    TMP DP  RH WIND       PRES   REMARKS
MUNCIE         FAIR      33  24  69 NW8       30.38R WCI  26
RICHMOND +     FAIR      36  28  75 N9        30.36R WCI  29

$$

INZ060-061-067>069-081>083-085>088-200600-
SOUTHWEST INDIANA

CITY           SKY/WX    TMP DP  RH WIND       PRES   REMARKS
EVANSVILLE     FAIR      46  32  58 N7        30.39R
HUNTINGBURG +  FAIR      44  29  55 N7        30.39R

$$

INZ062-063-066-070>080-084-089>092-200600-
SOUTH CENTRAL AND SOUTHEAST INDIANA

CITY           SKY/WX    TMP DP  RH WIND       PRES   REMARKS
BLOOMINGTON    FAIR      39  19  44 N10       30.39R WCI  32
SEYMOUR +      FAIR      43  23  45 N6        30.37S

$$





USA.gov is the U.S. government's official web portal to all federal, state and local government web resources and services.